Terminal Aerodrome Forecast
Issued by NWS Honolulu, HI

Home | Current Version | Previous Version | Text Only | Print | Product List | Glossary On
Versions: 1 2 3 4 5 6 7 8 9 10 11 12 13 14 15 16 17 18 19 20 21 22 23
000
FTPA31 PHFO 300307 AAA
TAFHNL
TAF AMD
PHNL 300307Z 3003/0106 06012G18KT P6SM SCT030 BKN050
     FM300500 05011KT P6SM FEW025 SCT050
     FM302000 05014G21KT P6SM FEW030 SCT050=

USA.gov is the U.S. government's official web portal to all federal, state and local government web resources and services.